#timestamp,LO_Frequency,Hit 
1502751615.1,286047001.0,N
1502751635.8,286046998.8,N
1502751655.7,286046999.5,N
1502751675.5,286046998.1,N
1502751695.3,286046997.2,N
1502751715.2,286046996.9,N
1502751735.9,286046994.9,N
1502751755.7,286046997.8,N
1502751775.6,286046997.9,N
1502751795.4,286046997.7,N
1502751815.2,286046998.6,N
1502751835.0,286046996.7,N
1502751836.0,286046996.7,N
1502751855.8,286046996.3,N
1502751875.6,286046995.2,N
1502751895.4,286046997.8,N
1502751915.3,286046995.4,N
1502751935.1,286046997.0,N
1502751955.8,286046996.5,N
1502751975.7,286046998.1,N
1502751995.5,286046998.4,N
1502752015.3,286047000.6,N
1502752035.2,286047000.9,N
1502752055.9,286047003.9,N
1502752075.7,286047005.3,N
1502752095.6,286047003.4,N
1502752115.4,286047002.8,N
1502752135.2,286047002.7,N
1502752155.0,286046998.6,N
1502752156.0,286046998.6,N
1502752175.8,286047000.1,N
1502752195.6,286047000.6,N
1502752215.4,286047001.0,N
1502752235.3,286047000.2,N
1502752255.1,286046998.1,N
1502752275.8,286047001.1,N
1502752295.7,286046998.9,N
1502752315.5,286047002.8,N
1502752335.3,286047001.9,N
1502752355.2,286047004.1,N
1502752375.9,286047003.6,N
1502752395.7,286047005.7,N
1502752415.6,286047004.9,N
1502752435.4,286047005.8,N
1502752455.2,286047004.3,N
1502752475.1,286047003.1,N
1502752476.0,286047003.1,N
1502752495.8,286047005.6,N
1502752515.6,286047005.1,N
1502752535.4,286047003.9,N
1502752555.3,286047005.5,N
1502752575.1,286047006.9,N
1502752595.9,286047009.0,P
1502752615.7,286047003.3,N
1502752635.5,286047004.1,N
1502752655.4,286047002.3,N
1502752675.2,286047001.4,N
1502752695.0,286047002.5,N
1502752695.9,286047002.5,N
1502752715.7,286047002.6,N
1502752735.6,286047004.1,N
1502752755.4,286047003.2,N
1502752775.2,286047004.1,N
1502752795.1,286047001.6,N
1502752796.0,286047001.6,N
1502752815.8,286047005.5,N
1502752835.7,286047006.0,P
1502752855.5,286047001.1,N
1502752875.3,286046998.2,N
1502752895.1,286047000.6,N
1502752915.9,286047002.8,N
1502752935.7,286047004.0,N
1502752955.5,286047004.4,N
1502752975.4,286047003.1,N
1502752995.2,286047004.1,N
1502753015.0,286046999.8,N
1502753015.9,286046999.8,N
1502753035.8,286046998.7,N
1502753055.6,286046996.9,N
1502753075.4,286046996.6,N
1502753095.3,286046997.4,N
1502753115.1,286047000.7,N
1502753116.0,286047000.7,N
1502753135.8,286047001.8,N
1502753155.7,286046998.3,N
1502753175.5,286046996.9,N
1502753195.3,286046999.1,N
1502753215.2,286046998.1,N
1502753235.9,286047000.1,N
1502753255.7,286047001.1,N
1502753275.5,286046999.3,N
1502753295.4,286046997.2,N
1502753315.2,286046997.5,N
1502753335.0,286046997.8,N
1502753335.9,286046997.8,N
1502753355.8,286046997.2,N
1502753375.6,286046999.2,N
1502753395.4,286046999.5,N
1502753415.3,286046998.0,N
1502753435.1,286046997.5,N
1502753436.0,286046997.5,N
1502753455.8,286046996.8,N
1502753475.7,286046997.3,N
1502753495.5,286046996.8,N
1502753515.3,286046997.6,N
1502753535.2,286046995.6,P
1502753555.9,286046999.3,N
1502753575.7,286046998.1,N
1502753595.6,286046999.4,N
1502753615.4,286047001.1,N
1502753635.2,286046998.1,N
1502753655.1,286046998.3,N
1502753656.0,286046998.3,N
1502753675.8,286046997.0,N
1502753695.6,286046997.5,N
1502753715.5,286046995.4,P
1502753735.3,286046996.3,N
1502753755.1,286046995.7,P
1502753775.9,286046997.9,N
1502753795.7,286047001.2,N
1502753815.5,286046999.0,N
1502753835.4,286046997.8,N
1502753855.2,286046996.0,N
1502753875.0,286046998.8,N
1502753875.9,286046998.8,N
1502753895.7,286046999.6,N
1502753915.6,286046999.5,N
1502753935.4,286047001.0,N
1502753955.2,286047002.6,N
1502753975.1,286047002.2,N
1502753976.0,286047002.2,N
1502753995.8,286046997.4,N
1502754015.6,286046997.5,N
1502754035.5,286046994.9,N
1502754055.3,286046996.0,N
1502754075.1,286046995.1,N
1502754095.9,286046994.4,N
1502754115.7,286046993.5,N
1502754135.5,286046994.8,N
1502754155.4,286046998.0,N
1502754175.2,286046997.8,N
1502754195.0,286046997.8,N
1502754195.9,286046997.8,N
1502754215.8,286046995.4,N
1502754235.6,286046995.8,N
1502754255.4,286046994.7,N
1502754275.2,286046997.4,N
1502754295.1,286046994.9,N
1502754296.0,286046994.9,N
1502754315.8,286046996.7,N
1502754335.6,286046999.3,N
1502754355.5,286047000.6,N
1502754375.3,286047002.7,N
1502754395.1,286046999.8,N
1502754415.9,286047001.7,N
1502754435.7,286047001.3,N
1502754455.5,286047002.6,N
1502754475.4,286046999.8,N
1502754495.2,286046999.2,N
1502754515.0,286046997.4,N
1502754515.9,286046997.4,N
1502754535.8,286046996.7,N
1502754555.6,286046994.9,N
1502754575.4,286046998.7,N
1502754595.3,286047001.1,N
1502754615.1,286047000.0,N
1502754616.0,286047000.0,N
1502754635.8,286047002.6,N
1502754655.7,286047001.7,N
1502754675.5,286047003.2,N
1502754695.3,286047004.5,N
1502754715.1,286047005.3,N
1502754735.9,286047003.4,N
1502754755.7,286047004.0,N
1502754775.5,286047002.1,N
1502754795.4,286047001.0,N
1502754815.2,286046997.8,N
1502754835.0,286047000.5,N
1502754835.9,286047000.5,N
1502754855.8,286046996.5,N
1502754875.6,286046997.2,N
1502754895.4,286046998.6,N
1502754915.3,286046998.1,N
1502754935.1,286047002.1,N
1502754936.0,286047002.1,N
1502754955.8,286047002.6,N
1502754975.7,286047000.6,N
1502754995.5,286046999.9,N
1502755015.3,286046999.5,N
1502755035.2,286046999.4,N
1502755055.9,286046999.4,N
1502755075.7,286046999.8,N
1502755095.5,286047001.5,N
1502755115.4,286047002.1,N
1502755135.2,286047002.9,N
1502755155.0,286047002.0,N
1502755155.9,286047002.0,N
1502755175.8,286047004.3,N
1502755195.6,286047001.9,N
